Location: Degersen
(52.2871°N, 9.5716°E)
Time: 07:10:04
(UTC+00:00)

Cosmos 1805 Rocket - Pass Details

Date: 20 January 2026
Orbit: 598 x 623 km, 82.5° (Epoch: 18 February)

Event Time Altitude Azimuth Distance (km) Brightness Sun altitude
Exits shadow 04:10:31 46° 55° (NE) 841 4.5 -28.3°
Drops below altitude 10° 04:13:59 10° 19° (NNE) 1,993 6.4 -27.7°
Sets 04:16:14 0° 15° (NNE) 2,900 7.2 -27.4°
